Time,TemperatureF,DewpointF,PressureIn,WindDirection,WindDirectionDegrees,WindSpeedMPH,WindSpeedGustMPH,Humidity,HourlyPrecipIn,Conditions,Clouds,dailyrainin,SolarRadiationWatts/m^2,SoftwareType,DateUTC
2013-12-23 00:12:00,28.0,24.0,30.28,East,98,2.0,4.0,86,0.00,,,0.00,33,weatherlink.com 1.10,2013-12-23 07:12:00,
2013-12-23 00:27:00,28.0,24.0,30.28,ESE,115,4.0,5.0,86,0.00,,,0.00,54,weatherlink.com 1.10,2013-12-23 07:27:00,
2013-12-23 00:42:00,28.2,25.0,30.28,North,355,4.0,5.0,87,0.00,,,0.00,7,weatherlink.com 1.10,2013-12-23 07:42:00,
2013-12-23 00:57:00,28.0,25.0,30.28,NNE,13,5.0,8.0,87,0.00,,,0.00,33,weatherlink.com 1.10,2013-12-23 07:57:00,
2013-12-23 01:12:00,28.8,25.0,30.28,WSW,258,4.0,5.0,86,0.00,,,0.00,35,weatherlink.com 1.10,2013-12-23 08:12:00,
2013-12-23 01:27:00,30.6,26.0,30.27,East,100,7.0,10.0,84,0.00,,,0.00,39,weatherlink.com 1.10,2013-12-23 08:27:00,
2013-12-23 01:42:00,30.8,26.0,30.27,ESE,113,8.0,12.0,81,0.00,,,0.00,11,weatherlink.com 1.10,2013-12-23 08:42:00,
2013-12-23 01:57:00,33.7,28.0,30.27,East,96,2.0,10.0,78,0.00,,,0.00,14,weatherlink.com 1.10,2013-12-23 08:57:00,
2013-12-23 02:12:00,33.9,28.0,30.26,NNE,16,10.0,16.0,78,0.00,,,0.00,72,weatherlink.com 1.10,2013-12-23 09:12:00,
2013-12-23 02:27:00,36.8,29.0,30.26,East,99,11.0,15.0,72,0.00,,,0.00,81,weatherlink.com 1.10,2013-12-23 09:27:00,
2013-12-23 02:42:00,36.6,28.0,30.25,East,97,9.0,12.0,72,0.00,,,0.00,21,weatherlink.com 1.10,2013-12-23 09:42:00,
2013-12-23 02:57:00,35.9,29.0,30.26,East,99,11.0,14.0,75,0.00,,,0.00,56,weatherlink.com 1.10,2013-12-23 09:57:00,
2013-12-23 03:12:00,36.6,29.0,30.26,ESE,110,14.0,16.0,74,0.00,,,0.00,56,weatherlink.com 1.10,2013-12-23 10:12:00,
2013-12-23 03:27:00,35.1,28.0,30.26,East,89,10.0,14.0,76,0.00,,,0.00,81,weatherlink.com 1.10,2013-12-23 10:27:00,
2013-12-23 03:42:00,33.6,27.0,30.25,East,85,13.0,14.0,78,0.00,,,0.00,77,weatherlink.com 1.10,2013-12-23 10:42:00,
2013-12-23 03:57:00,33.4,28.0,30.24,ESE,110,18.0,19.0,79,0.00,,,0.00,76,weatherlink.com 1.10,2013-12-23 10:57:00,
2013-12-23 04:12:00,33.3,27.0,30.25,ESE,110,16.0,17.0,79,0.00,,,0.00,49,weatherlink.com 1.10,2013-12-23 11:12:00,
2013-12-23 04:27:00,35.1,29.0,30.25,ESE,107,13.0,17.0,77,0.00,,,0.00,53,weatherlink.com 1.10,2013-12-23 11:27:00,
2013-12-23 04:43:00,36.1,29.0,30.25,ESE,102,10.0,14.0,75,0.00,,,0.00,21,weatherlink.com 1.10,2013-12-23 11:43:00,
2013-12-23 04:58:00,37.8,30.0,30.24,SE,125,15.0,17.0,74,0.00,,,0.00,23,weatherlink.com 1.10,2013-12-23 11:58:00,
2013-12-23 05:13:00,38.9,30.0,30.24,ESE,108,11.0,24.0,70,0.00,,,0.00,63,weatherlink.com 1.10,2013-12-23 12:13:00,
2013-12-23 05:28:00,38.6,30.0,30.23,East,81,5.0,13.0,71,0.00,,,0.00,63,weatherlink.com 1.10,2013-12-23 12:28:00,
2013-12-23 05:43:00,39.0,30.0,30.22,ESE,113,4.0,13.0,70,0.00,,,0.00,65,weatherlink.com 1.10,2013-12-23 12:43:00,
2013-12-23 05:58:00,39.3,30.0,30.21,East,95,10.0,17.0,69,0.00,,,0.00,28,weatherlink.com 1.10,2013-12-23 12:58:00,
2013-12-23 06:13:00,39.6,31.0,30.22,ENE,77,11.0,25.0,70,0.00,,,0.00,28,weatherlink.com 1.10,2013-12-23 13:13:00,
2013-12-23 06:28:00,39.3,31.0,30.21,NNE,32,10.0,17.0,71,0.00,,,0.00,67,weatherlink.com 1.10,2013-12-23 13:28:00,
2013-12-23 06:43:00,39.1,30.0,30.21,ENE,62,16.0,16.0,71,0.00,,,0.00,65,weatherlink.com 1.10,2013-12-23 13:43:00,
2013-12-23 06:58:00,39.6,31.0,30.21,NE,56,17.0,30.0,71,0.00,,,0.00,67,weatherlink.com 1.10,2013-12-23 13:58:00,
2013-12-23 07:13:00,39.6,31.0,30.20,East,83,13.0,23.0,71,0.00,,,0.00,28,weatherlink.com 1.10,2013-12-23 14:13:00,
2013-12-23 07:28:00,39.6,31.0,30.20,ENE,73,11.0,19.0,71,0.00,,,0.00,28,weatherlink.com 1.10,2013-12-23 14:28:00,
2013-12-23 07:43:00,39.5,31.0,30.19,ENE,76,14.0,21.0,72,0.00,,,0.00,67,weatherlink.com 1.10,2013-12-23 14:43:00,
2013-12-23 07:58:00,40.0,31.0,30.18,East,85,13.0,25.0,70,0.00,,,0.00,67,weatherlink.com 1.10,2013-12-23 14:58:00,
2013-12-23 08:13:00,40.0,31.0,30.18,ENE,72,10.0,25.0,71,0.00,,,0.00,25,weatherlink.com 1.10,2013-12-23 15:13:00,
2013-12-23 08:28:00,39.6,31.0,30.19,ENE,62,7.0,15.0,72,0.00,,,0.00,26,weatherlink.com 1.10,2013-12-23 15:28:00,
2013-12-23 08:43:00,39.9,31.0,30.18,East,95,16.0,21.0,71,0.00,,,0.00,0,weatherlink.com 1.10,2013-12-23 15:43:00,
2013-12-23 08:58:00,40.5,31.0,30.18,ENE,71,11.0,17.0,70,0.00,,,0.00,0,weatherlink.com 1.10,2013-12-23 15:58:00,
2013-12-23 09:28:00,40.6,32.0,30.16,ENE,63,20.0,22.0,70,0.00,,,0.00,0,weatherlink.com 1.10,2013-12-23 16:28:00,
2013-12-23 09:43:00,40.6,32.0,30.16,NE,49,9.0,13.0,70,0.00,,,0.00,0,weatherlink.com 1.10,2013-12-23 16:43:00,
2013-12-23 09:58:00,41.1,32.0,30.15,ENE,75,15.0,20.0,69,0.00,,,0.00,0,weatherlink.com 1.10,2013-12-23 16:58:00,
2013-12-23 10:13:00,41.3,32.0,30.16,NE,48,12.0,24.0,69,0.00,,,0.00,0,weatherlink.com 1.10,2013-12-23 17:13:00,
2013-12-23 10:28:00,41.3,32.0,30.16,NE,55,25.0,25.0,70,0.00,,,0.00,0,weatherlink.com 1.10,2013-12-23 17:28:00,
2013-12-23 10:43:00,41.3,32.0,30.16,East,83,10.0,24.0,70,0.00,,,0.00,0,weatherlink.com 1.10,2013-12-23 17:43:00,
2013-12-23 10:58:00,41.4,33.0,30.15,ENE,68,13.0,22.0,71,0.00,,,0.00,0,weatherlink.com 1.10,2013-12-23 17:58:00,
2013-12-23 11:13:00,42.0,33.0,30.15,East,83,9.0,18.0,70,0.00,,,0.00,0,weatherlink.com 1.10,2013-12-23 18:13:00,
2013-12-23 11:28:00,42.5,33.0,30.14,ENE,66,9.0,12.0,68,0.00,,,0.00,0,weatherlink.com 1.10,2013-12-23 18:28:00,
2013-12-23 11:43:00,43.0,33.0,30.13,ENE,77,8.0,13.0,67,0.00,,,0.00,0,weatherlink.com 1.10,2013-12-23 18:43:00,
2013-12-23 11:58:00,43.2,33.0,30.12,NE,39,10.0,13.0,67,0.00,,,0.00,0,weatherlink.com 1.10,2013-12-23 18:58:00,
2013-12-23 12:13:00,42.4,33.0,30.11,ENE,67,15.0,16.0,70,0.00,,,0.00,0,weatherlink.com 1.10,2013-12-23 19:13:00,
2013-12-23 12:28:00,42.5,33.0,30.10,ENE,73,16.0,18.0,70,0.00,,,0.00,0,weatherlink.com 1.10,2013-12-23 19:28:00,
2013-12-23 12:43:00,44.0,34.0,30.10,East,79,8.0,21.0,67,0.00,,,0.00,0,weatherlink.com 1.10,2013-12-23 19:43:00,
2013-12-23 12:58:00,43.9,34.0,30.09,East,89,12.0,17.0,67,0.00,,,0.00,0,weatherlink.com 1.10,2013-12-23 19:58:00,
2013-12-23 13:13:00,44.6,33.0,30.09,SE,145,13.0,19.0,65,0.00,,,0.00,0,weatherlink.com 1.10,2013-12-23 20:13:00,
2013-12-23 13:28:00,43.8,34.0,30.08,ESE,107,19.0,21.0,69,0.00,,,0.00,0,weatherlink.com 1.10,2013-12-23 20:28:00,
2013-12-23 13:43:00,42.5,34.0,30.09,SE,127,14.0,22.0,72,0.00,,,0.00,0,weatherlink.com 1.10,2013-12-23 20:43:00,
2013-12-23 13:58:00,42.4,34.0,30.08,ESE,116,8.0,15.0,72,0.00,,,0.00,0,weatherlink.com 1.10,2013-12-23 20:58:00,
2013-12-23 14:13:00,42.4,34.0,30.07,ESE,112,12.0,18.0,73,0.00,,,0.00,0,weatherlink.com 1.10,2013-12-23 21:13:00,
2013-12-23 14:28:00,42.9,34.0,30.07,ESE,108,24.0,26.0,71,0.00,,,0.00,0,weatherlink.com 1.10,2013-12-23 21:28:00,
2013-12-23 14:43:00,42.7,34.0,30.05,ESE,115,24.0,32.0,72,0.00,,,0.00,0,weatherlink.com 1.10,2013-12-23 21:43:00,
2013-12-23 14:58:00,42.9,34.0,30.04,ESE,102,23.0,27.0,72,0.00,,,0.00,0,weatherlink.com 1.10,2013-12-23 21:58:00,
2013-12-23 15:13:00,43.1,35.0,30.04,ESE,115,24.0,32.0,72,0.00,,,0.00,0,weatherlink.com 1.10,2013-12-23 22:13:00,
2013-12-23 15:28:00,43.0,34.0,30.04,ESE,102,24.0,27.0,71,0.00,,,0.00,0,weatherlink.com 1.10,2013-12-23 22:28:00,
2013-12-23 15:44:00,42.8,34.0,30.03,East,94,21.0,30.0,71,0.00,,,0.00,0,weatherlink.com 1.10,2013-12-23 22:44:00,
2013-12-23 15:59:00,42.8,34.0,30.04,ENE,75,20.0,27.0,71,0.00,,,0.00,0,weatherlink.com 1.10,2013-12-23 22:59:00,
2013-12-23 16:14:00,42.8,34.0,30.02,ENE,72,22.0,29.0,71,0.00,,,0.00,0,weatherlink.com 1.10,2013-12-23 23:14:00,
2013-12-23 16:29:00,42.9,34.0,30.03,East,81,14.0,22.0,70,0.00,,,0.00,0,weatherlink.com 1.10,2013-12-23 23:29:00,
2013-12-23 16:44:00,43.0,34.0,30.02,ENE,73,16.0,35.0,70,0.00,,,0.00,0,weatherlink.com 1.10,2013-12-23 23:44:00,
2013-12-23 16:59:00,43.0,34.0,30.00,ENE,70,20.0,26.0,70,0.00,,,0.00,28,weatherlink.com 1.10,2013-12-23 23:59:00,
2013-12-23 17:14:00,42.6,34.0,30.00,ENE,73,19.0,22.0,72,0.00,,,0.00,35,weatherlink.com 1.10,2013-12-24 00:14:00,
2013-12-23 17:29:00,41.7,34.0,29.98,East,89,22.0,23.0,75,0.00,,,0.00,77,weatherlink.com 1.10,2013-12-24 00:29:00,
2013-12-23 17:44:00,41.4,34.0,29.98,East,79,17.0,25.0,76,0.00,,,0.00,76,weatherlink.com 1.10,2013-12-24 00:44:00,
2013-12-23 17:59:00,41.4,34.0,29.96,ESE,102,26.0,35.0,76,0.00,,,0.00,32,weatherlink.com 1.10,2013-12-24 00:59:00,
2013-12-23 18:14:00,41.1,34.0,29.95,ENE,58,17.0,22.0,77,0.01,,,0.01,32,weatherlink.com 1.10,2013-12-24 01:14:00,
2013-12-23 18:29:00,41.1,34.0,29.95,ENE,58,16.0,21.0,77,0.01,,,0.01,72,weatherlink.com 1.10,2013-12-24 01:29:00,
2013-12-23 18:44:00,41.4,35.0,29.92,East,85,14.0,17.0,77,0.01,,,0.01,74,weatherlink.com 1.10,2013-12-24 01:44:00,
2013-12-23 18:59:00,42.0,35.0,29.89,East,89,27.0,31.0,75,0.01,,,0.01,76,weatherlink.com 1.10,2013-12-24 01:59:00,
2013-12-23 19:14:00,41.7,35.0,29.87,ESE,103,28.0,38.0,76,0.00,,,0.01,33,weatherlink.com 1.10,2013-12-24 02:14:00,
2013-12-23 19:29:00,41.7,35.0,29.86,ESE,108,34.0,44.0,77,0.00,,,0.01,33,weatherlink.com 1.10,2013-12-24 02:29:00,
2013-12-23 19:44:00,41.5,35.0,29.90,ESE,104,24.0,32.0,77,0.00,,,0.01,74,weatherlink.com 1.10,2013-12-24 02:44:00,
2013-12-23 19:59:00,41.7,35.0,29.88,ESE,110,31.0,44.0,77,0.00,,,0.01,74,weatherlink.com 1.10,2013-12-24 02:59:00,
2013-12-23 20:14:00,41.6,35.0,29.91,SE,141,21.0,29.0,78,0.00,,,0.01,74,weatherlink.com 1.10,2013-12-24 03:14:00,
2013-12-23 20:29:00,39.5,34.0,29.96,South,172,21.0,33.0,82,0.01,,,0.02,30,weatherlink.com 1.10,2013-12-24 03:29:00,
2013-12-23 20:44:00,40.5,32.0,29.92,SSE,161,36.0,47.0,73,0.02,,,0.03,25,weatherlink.com 1.10,2013-12-24 03:44:00,
2013-12-23 20:59:00,39.4,33.0,29.92,SSE,154,25.0,34.0,79,0.02,,,0.03,62,weatherlink.com 1.10,2013-12-24 03:59:00,
2013-12-23 21:14:00,39.5,32.0,29.93,SSE,147,10.0,24.0,75,0.02,,,0.03,63,weatherlink.com 1.10,2013-12-24 04:14:00,
2013-12-23 21:29:00,40.2,31.0,29.94,SSE,161,11.0,20.0,70,0.01,,,0.03,26,weatherlink.com 1.10,2013-12-24 04:29:00,
2013-12-23 21:44:00,41.3,29.0,29.91,South,170,28.0,38.0,63,0.00,,,0.03,30,weatherlink.com 1.10,2013-12-24 04:44:00,
2013-12-23 21:59:00,38.8,32.0,29.98,South,177,35.0,43.0,76,0.00,,,0.03,30,weatherlink.com 1.10,2013-12-24 04:59:00,
2013-12-23 22:14:00,33.6,30.0,30.04,South,182,30.0,44.0,87,0.00,,,0.03,51,weatherlink.com 1.10,2013-12-24 05:14:00,
2013-12-23 22:29:00,34.3,28.0,30.01,SSE,164,21.0,43.0,77,0.00,,,0.03,49,weatherlink.com 1.10,2013-12-24 05:29:00,
2013-12-23 22:44:00,35.9,24.0,30.02,SSE,150,15.0,31.0,63,0.00,,,0.03,18,weatherlink.com 1.10,2013-12-24 05:44:00,
2013-12-23 22:59:00,35.8,24.0,30.03,SSE,160,18.0,22.0,63,0.00,,,0.03,16,weatherlink.com 1.10,2013-12-24 05:59:00,
2013-12-23 23:14:00,35.7,23.0,30.04,South,191,17.0,30.0,61,0.00,,,0.03,16,weatherlink.com 1.10,2013-12-24 06:14:00,
2013-12-23 23:29:00,35.9,20.0,30.06,South,171,15.0,37.0,53,0.00,,,0.03,74,weatherlink.com 1.10,2013-12-24 06:29:00,
2013-12-23 23:44:00,35.8,20.0,30.07,ESE,116,10.0,29.0,54,0.00,,,0.03,47,weatherlink.com 1.10,2013-12-24 06:44:00,
2013-12-23 23:59:00,34.3,24.0,30.09,ENE,71,5.0,18.0,65,0.00,,,0.03,46,weatherlink.com 1.10,2013-12-24 06:59:00,